GW1213 Weather Reports


time (UTC)temp
C
wind
direction
speed
KPH
gust
KPH
rain 1hr
cm
rain 24hr
cm
rain mn
cm
humidity
%
barometer
mb
20260905171036 22 0 0.0 6.4 0.46 0.46 0.46 94 1010.8
20260905170538 22 0 0.0 8.0 0.43 0.43 0.43 94 1010.9
20260905170106 22 63 3.2 8.0 0.43 0.43 0.43 93 1011.0
20260905165536 22 71 4.8 8.0 0.38 0.38 0.38 92 1011.2
20260905165038 22 77 3.2 8.0 0.36 0.36 0.36 91 1011.4
20260905164611 23 65 1.6 4.8 0.33 0.33 0.33 89 1011.7
20260905164038 23 138 0.0 11.3 0.28 0.28 0.28 88 1011.9
20260905163536 23 0 1.6 11.3 0.20 0.20 0.20 86 1012.6
20260905163101 25 240 3.2 11.3 0.05 0.05 0.05 83 1013.0
20260905162538 25 254 1.6 4.8 0.03 0.03 0.03 84 1013.0
20260905162038 25 274 0.0 0.0 0.00 0.00 0.00 83 1012.4
20260905161559 25 0 0.0 0.0 0.00 0.00 0.00 81 1012.2
20260905161037 25 0 0.0 3.2 0.00 0.00 0.00 80 1012.1
20260905160539 26 0 0.0 4.8 0.00 0.00 0.00 79 1012.0
20260905160059 26 0 0.0 4.8 0.00 0.00 0.00 79 1012.0
20260905155538 26 352 1.6 4.8 0.00 0.00 0.00 79 1012.0
20260905155037 26 0 0.0 3.2 0.00 0.00 0.00 79 1012.0
20260905154606 26 0 0.0 3.2 0.00 0.00 0.00 78 1011.9
20260905154038 26 352 0.0 6.4 0.00 0.00 0.00 78 1011.8
20260905153537 26 0 0.0 6.4 0.00 0.00 0.00 78 1011.7
20260905153100 26 346 3.2 6.4 0.00 0.00 0.00 77 1011.6
20260905152538 26 16 1.6 6.4 0.00 0.00 0.00 77 1011.6
20260905152036 26 352 1.6 6.4 0.00 0.00 0.00 77 1011.6
20260905151605 26 360 0.0 6.4 0.00 0.00 0.00 76 1011.6
20260905151038 26 0 0.0 4.8 0.00 0.00 0.00 77 1011.7
20260905150538 26 329 0.0 3.2 0.00 0.00 0.00 77 1011.8
20260905150100 26 352 0.0 3.2 0.00 0.00 0.00 78 1011.9
20260905145540 26 0 0.0 3.2 0.00 0.00 0.00 78 1011.8
20260905145038 26 320 0.0 3.2 0.00 0.00 0.00 78 1011.7
20260905144558 26 323 0.0 3.2 0.00 0.00 0.00 78 1011.9
20260905144034 26 0 0.0 1.6 0.00 0.00 0.00 80 1011.9
20260905143541 26 0 0.0 1.6 0.00 0.00 0.00 80 1011.9
20260905143103 26 331 0.0 1.6 0.00 0.00 0.00 80 1011.9
20260905142537 26 0 0.0 0.0 0.00 0.00 0.00 81 1011.8
20260905142038 26 0 0.0 0.0 0.00 0.00 0.00 79 1011.8
20260905141558 26 0 0.0 3.2 0.00 0.00 0.00 80 1011.7
20260905141040 26 0 0.0 4.8 0.00 0.00 0.00 79 1011.7
20260905140535 26 0 0.0 4.8 0.00 0.00 0.00 79 1011.6
20260905135540 26 0 0.0 0.0 0.00 0.00 0.00 80 1011.5
20260905135036 26 0 0.0 1.6 0.00 0.00 0.00 80 1011.3
20260905134602 26 0 0.0 4.8 0.00 0.00 0.00 81 1011.4
20260905134038 26 0 0.0 4.8 0.00 0.00 0.00 81 1011.2
20260905133538 25 355 1.6 4.8 0.00 0.00 0.00 81 1011.2
20260905133102 25 52 0.0 3.2 0.00 0.00 0.00 82 1011.1
20260905132535 25 0 0.0 3.2 0.00 0.00 0.00 82 1011.2
20260905132041 25 352 0.0 3.2 0.00 0.00 0.00 84 1011.2
20260905131600 24 326 1.6 3.2 0.00 0.00 0.00 85 1011.3
20260905131037 24 0 0.0 8.0 0.00 0.00 0.00 86 1011.3
20260905130540 23 0 0.0 8.0 0.00 0.00 0.00 88 1011.2
20260905130057 23 0 0.0 0.0 0.00 0.00 0.00 88 1011.2
20260905125537 23 0 0.0 0.0 0.00 0.00 0.00 89 1011.2
20260905125037 23 0 0.0 0.0 0.00 0.00 0.00 90 1011.2
20260905124559 23 0 0.0 0.0 0.00 0.00 0.00 91 1011.3
20260905124037 22 0 0.0 0.0 0.00 0.00 0.00 90 1011.1
20260905123537 22 0 0.0 0.0 0.00 0.00 0.00 91 1011.2
20260905123106 22 0 0.0 0.0 0.00 0.00 0.00 91 1011.1
20260905122538 22 0 0.0 0.0 0.00 0.00 0.00 92 1011.1
20260905122037 22 0 0.0 0.0 0.00 0.00 0.00 92 1011.0
20260905121602 22 0 0.0 0.0 0.00 0.00 0.00 94 1011.1
20260905121038 22 0 0.0 0.0 0.00 0.00 0.00 93 1011.1
20260905120540 22 0 0.0 0.0 0.00 0.00 0.00 93 1011.2
20260905120110 22 0 0.0 0.0 0.00 0.00 0.00 94 1011.2
20260905115537 22 0 0.0 0.0 0.00 0.00 0.00 94 1011.2
20260905115037 22 0 0.0 0.0 0.00 0.00 0.00 95 1011.2
20260905114609 21 0 0.0 0.0 0.00 0.00 0.00 96 1010.9
20260905114037 21 0 0.0 0.0 0.00 0.00 0.00 96 1011.0
20260905113540 21 0 0.0 0.0 0.00 0.00 0.00 96 1011.0
20260905113105 21 0 0.0 0.0 0.00 0.00 0.00 97 1011.0
20260905112538 21 0 0.0 0.0 0.00 0.00 0.00 96 1011.0
20260905112036 21 0 0.0 0.0 0.00 0.00 0.00 97 1011.0
20260905111655 21 0 0.0 0.0 0.00 0.00 0.00 96 1011.0
20260905111037 21 0 0.0 0.0 0.00 0.00 0.00 96 1010.9
20260905110537 21 0 0.0 0.0 0.00 0.00 0.00 96 1010.7
20260905110058 21 0 0.0 0.0 0.00 0.00 0.00 96 1010.5
20260905105536 21 0 0.0 0.0 0.00 0.00 0.00 96 1010.4
20260905105035 21 0 0.0 0.0 0.00 0.00 0.00 96 1010.4
20260905104555 21 0 0.0 0.0 0.00 0.00 0.00 96 1010.4
20260905104037 21 0 0.0 0.0 0.00 0.00 0.00 96 1010.3
20260905103538 21 0 0.0 0.0 0.00 0.00 0.00 96 1010.2
20260905103103 21 0 0.0 0.0 0.00 0.00 0.00 96 1010.2
20260905102534 21 0 0.0 0.0 0.00 0.00 0.00 95 1010.2
20260905102037 21 0 0.0 0.0 0.00 0.00 0.00 95 1010.1
20260905101607 21 0 0.0 0.0 0.00 0.00 0.00 95 1010.1
20260905101035 21 0 0.0 0.0 0.00 0.00 0.00 95 1010.0
20260905100538 21 0 0.0 0.0 0.00 0.00 0.00 95 1010.1
20260905100104 21 0 0.0 0.0 0.00 0.00 0.00 95 1010.1
20260905095535 21 0 0.0 0.0 0.00 0.00 0.00 95 1010.0
20260905095035 21 0 0.0 0.0 0.00 0.00 0.00 95 1009.9
20260905094559 21 0 0.0 0.0 0.00 0.00 0.00 95 1009.8
20260905094038 21 0 0.0 0.0 0.00 0.00 0.00 95 1009.7
20260905093535 21 0 0.0 0.0 0.00 0.00 0.00 95 1009.7
20260905093121 21 0 0.0 0.0 0.00 0.00 0.00 95 1009.7
20260905092535 21 0 0.0 0.0 0.00 0.00 0.00 95 1009.6
20260905092037 21 0 0.0 0.0 0.00 0.00 0.00 95 1009.6
20260905091556 21 0 0.0 0.0 0.00 0.00 0.00 95 1009.7
20260905091039 21 0 0.0 0.0 0.00 0.00 0.00 95 1009.7
20260905090541 21 0 0.0 0.0 0.00 0.00 0.00 94 1009.7
20260905085536 21 0 0.0 0.0 0.00 0.00 0.00 95 1009.8
20260905085037 21 0 0.0 0.0 0.00 0.00 0.00 94 1009.8
20260905084602 21 0 0.0 0.0 0.00 0.00 0.00 94 1009.8
20260905084038 21 0 0.0 0.0 0.00 0.00 0.00 94 1009.9
20260905083537 21 0 0.0 0.0 0.00 0.00 0.00 94 1009.9
20260905083059 21 0 0.0 0.0 0.00 0.00 0.00 94 1009.9
20260905082535 21 0 0.0 0.0 0.00 0.00 0.00 94 1010.1
20260905082037 21 0 0.0 0.0 0.00 0.00 0.00 94 1010.2
20260905081556 21 0 0.0 0.0 0.00 0.00 0.00 94 1010.1
20260905081038 21 0 0.0 0.0 0.00 0.00 0.00 94 1010.1
20260905080537 21 0 0.0 0.0 0.00 0.00 0.00 94 1010.2
20260905075537 21 0 0.0 0.0 0.00 0.00 0.00 94 1010.4
20260905075037 21 0 0.0 0.0 0.00 0.00 0.00 94 1010.4
20260905074601 21 0 0.0 0.0 0.00 0.00 0.00 94 1010.4
20260905074038 21 0 0.0 0.0 0.00 0.00 0.00 93 1010.4
20260905073537 21 0 0.0 0.0 0.00 0.00 0.00 93 1010.5
20260905073104 21 0 0.0 0.0 0.00 0.00 0.00 93 1010.5
20260905072537 21 0 0.0 0.0 0.00 0.00 0.00 93 1010.5
20260905072038 21 0 0.0 0.0 0.00 0.00 0.00 93 1010.5
20260905071603 21 0 0.0 0.0 0.00 0.00 0.00 93 1010.5
20260905071037 21 0 0.0 0.0 0.00 0.00 0.00 93 1010.7
20260905070538 21 0 0.0 0.0 0.00 0.00 0.00 93 1010.6
20260905070107 21 0 0.0 0.0 0.00 0.00 0.00 93 1010.7
20260905065540 21 0 0.0 0.0 0.00 0.00 0.00 93 1010.7
20260905065038 21 0 0.0 0.0 0.00 0.00 0.00 93 1010.8
20260905064626 22 0 0.0 0.0 0.00 0.00 0.00 93 1010.8
20260905064037 22 0 0.0 0.0 0.00 0.00 0.00 93 1011.0
20260905063538 22 0 0.0 0.0 0.00 0.00 0.00 92 1011.1
20260905063102 22 0 0.0 0.0 0.00 0.00 0.00 92 1011.2
20260905062536 22 0 0.0 0.0 0.00 0.00 0.00 92 1011.2
20260905062039 22 0 0.0 0.0 0.00 0.00 0.00 92 1011.3
20260905061556 22 0 0.0 0.0 0.00 0.00 0.00 92 1011.3
20260905061036 22 0 0.0 0.0 0.00 0.00 0.00 92 1011.3
20260905060538 22 0 0.0 0.0 0.00 0.00 0.00 92 1011.4
20260905060106 22 0 0.0 0.0 0.00 0.00 0.00 92 1011.5
20260905055537 22 0 0.0 0.0 0.00 0.43 0.00 91 1011.7
20260905055038 22 0 0.0 0.0 0.00 0.43 0.00 91 1011.7
20260905054602 22 0 0.0 0.0 0.00 0.43 0.00 91 1011.8
20260905054042 22 0 0.0 0.0 0.00 0.43 0.00 91 1011.8
20260905053538 22 0 0.0 0.0 0.00 0.43 0.00 91 1011.8
20260905053101 22 0 0.0 0.0 0.00 0.43 0.00 91 1011.8
20260905052539 22 0 0.0 0.0 0.00 0.43 0.00 91 1011.9
20260905052036 22 0 0.0 0.0 0.00 0.43 0.00 91 1012.0
20260905051557 22 0 0.0 0.0 0.00 0.43 0.00 91 1012.0
20260905051036 22 0 0.0 0.0 0.00 0.43 0.00 91 1012.1
20260905050536 22 0 0.0 0.0 0.00 0.43 0.00 91 1012.0
20260905050107 22 0 0.0 0.0 0.00 0.43 0.00 91 1012.1
20260905045537 22 0 0.0 0.0 0.00 0.43 0.00 91 1012.3
20260905045038 22 0 0.0 0.0 0.00 0.43 0.00 92 1012.2
20260905044601 22 0 0.0 0.0 0.00 0.43 0.00 92 1012.1
20260905044038 22 0 0.0 0.0 0.00 0.43 0.00 92 1012.1
20260905043539 22 0 0.0 0.0 0.00 0.43 0.00 92 1012.1
20260905043104 22 0 0.0 0.0 0.00 0.43 0.00 92 1012.1
20260905042537 22 0 0.0 0.0 0.00 0.43 0.00 92 1012.1
20260905042036 22 0 0.0 0.0 0.00 0.43 0.00 92 1012.3
20260905041601 22 0 0.0 0.0 0.00 0.43 0.00 92 1012.3
20260905041038 22 0 0.0 0.0 0.00 0.43 0.00 92 1012.3
20260905040539 22 0 0.0 0.0 0.00 0.43 0.00 92 1012.5
20260905040105 22 0 0.0 0.0 0.00 0.43 0.00 92 1012.5
20260905035538 22 0 0.0 0.0 0.00 0.43 0.43 92 1012.4
20260905035038 22 0 0.0 0.0 0.00 0.43 0.43 92 1012.4
20260905034609 22 0 0.0 0.0 0.00 0.43 0.43 92 1012.4
20260905034041 23 0 0.0 0.0 0.00 0.43 0.43 92 1012.4
20260905033537 23 0 0.0 0.0 0.00 0.43 0.43 92 1012.2
20260905033059 23 0 0.0 0.0 0.00 0.43 0.43 91 1012.3
20260905032536 23 0 0.0 0.0 0.00 0.43 0.43 91 1012.2
20260905032035 23 0 0.0 0.0 0.00 0.43 0.43 92 1012.3
20260905031557 23 0 0.0 0.0 0.00 0.43 0.43 92 1012.3
20260905031035 23 0 0.0 0.0 0.00 0.43 0.43 92 1012.3
20260905030537 23 0 0.0 0.0 0.00 0.43 0.43 92 1012.4
20260905030118 23 0 0.0 0.0 0.00 0.43 0.43 92 1012.4
20260905025537 23 0 0.0 0.0 0.00 0.43 0.43 92 1012.3
20260905025038 23 0 0.0 0.0 0.00 0.43 0.43 92 1012.3
20260905024605 23 0 0.0 0.0 0.00 0.43 0.43 92 1012.3
20260905024036 23 0 0.0 0.0 0.00 0.43 0.43 91 1012.4
20260905023537 23 0 0.0 0.0 0.00 0.43 0.43 91 1012.4
20260905023056 23 0 0.0 0.0 0.00 0.43 0.43 91 1012.5
20260905022538 23 0 0.0 0.0 0.00 0.43 0.43 91 1012.6
20260905022035 23 0 0.0 0.0 0.00 0.43 0.43 92 1012.5
20260905021608 23 0 0.0 0.0 0.00 0.43 0.43 91 1012.3
20260905021037 23 0 0.0 0.0 0.00 0.43 0.43 91 1012.3
20260905020539 23 0 0.0 0.0 0.00 0.43 0.43 91 1012.4
20260905020106 23 0 0.0 0.0 0.00 0.43 0.43 91 1012.4
20260905015537 23 0 0.0 0.0 0.00 0.43 0.43 91 1012.1
20260905015043 23 0 0.0 0.0 0.00 0.43 0.43 91 1012.0
20260905014603 23 0 0.0 0.0 0.00 0.43 0.43 90 1012.0
20260905014035 23 0 0.0 0.0 0.00 0.43 0.43 90 1012.1
20260905013538 23 0 0.0 0.0 0.00 0.43 0.43 90 1011.9
20260905013100 23 0 0.0 0.0 0.00 0.43 0.43 89 1011.9
20260905012540 23 0 0.0 0.0 0.00 0.43 0.43 89 1011.9
20260905012038 24 0 0.0 0.0 0.00 0.43 0.43 88 1011.9
20260905011607 24 0 0.0 0.0 0.00 0.43 0.43 88 1011.9
20260905011037 24 0 0.0 0.0 0.00 0.43 0.43 87 1011.9
20260905010540 24 0 0.0 0.0 0.00 0.43 0.43 87 1011.7
20260905010058 24 0 0.0 0.0 0.00 0.43 0.43 86 1011.6
20260905005537 24 0 0.0 0.0 0.00 0.43 0.43 86 1011.5
20260905005037 24 0 0.0 0.0 0.00 0.43 0.43 85 1011.4
20260905004608 24 0 0.0 0.0 0.00 0.43 0.43 85 1011.4
20260905004038 25 0 0.0 0.0 0.00 0.43 0.43 85 1011.3
20260905003539 25 0 0.0 0.0 0.00 0.43 0.43 84 1011.3
20260905003102 25 0 0.0 4.8 0.00 0.43 0.43 84 1011.2
20260905002537 25 0 0.0 4.8 0.00 0.43 0.43 84 1011.3
20260905002037 25 0 0.0 4.8 0.00 0.43 0.43 83 1011.2
20260905001606 25 0 0.0 0.0 0.00 0.43 0.43 84 1011.1
20260905001038 25 0 0.0 1.6 0.00 0.43 0.43 83 1011.5
20260905000538 25 0 0.0 1.6 0.00 0.43 0.43 83 1011.6
20260905000107 25 0 0.0 4.8 0.00 0.43 0.43 84 1011.7
20260904235536 25 258 1.6 4.8 0.00 0.43 0.43 82 1011.8
20260904235038 25 219 0.0 6.4 0.00 0.43 0.43 82 1011.8
20260904234608 25 238 0.0 6.4 0.00 0.43 0.43 81 1011.9
20260904234040 26 275 0.0 6.4 0.00 0.43 0.43 81 1011.9
20260904233539 26 243 1.6 6.4 0.00 0.43 0.43 80 1011.8
20260904233059 26 197 0.0 4.8 0.00 0.43 0.43 81 1011.7
20260904232538 26 194 0.0 4.8 0.00 0.43 0.43 81 1011.5
20260904232035 26 0 0.0 0.0 0.00 0.43 0.43 82 1011.4
20260904231603 26 0 0.0 3.2 0.00 0.43 0.43 81 1011.5
20260904231035 26 0 0.0 3.2 0.00 0.43 0.43 81 1011.4
20260904230537 26 219 0.0 3.2 0.00 0.43 0.43 81 1010.8
20260904230057 26 0 0.0 1.6 0.00 0.43 0.43 80 1010.9
20260904225536 26 0 0.0 3.2 0.00 0.43 0.43 81 1011.3
20260904225038 26 0 0.0 3.2 0.00 0.43 0.43 80 1011.3
20260904224602 26 0 0.0 4.8 0.00 0.43 0.43 81 1011.3
20260904224035 26 0 0.0 6.4 0.00 0.43 0.43 81 1011.3
20260904223538 26 0 1.6 8.0 0.00 0.43 0.43 80 1011.4
20260904223103 27 180 1.6 8.0 0.00 0.43 0.43 82 1011.6
20260904222539 27 212 1.6 6.4 0.00 0.43 0.43 82 1011.7
20260904222037 27 0 0.0 4.8 0.00 0.43 0.43 81 1011.5
20260904221604 27 0 0.0 4.8 0.00 0.43 0.43 81 1011.4
20260904221039 27 0 0.0 3.2 0.00 0.43 0.43 82 1011.5
20260904220538 27 208 0.0 1.6 0.00 0.43 0.43 81 1011.7
20260904220110 28 0 0.0 1.6 0.00 0.43 0.43 79 1011.9
20260904215537 28 0 0.0 3.2 0.00 0.43 0.43 76 1012.4
20260904215041 28 0 0.0 3.2 0.00 0.43 0.43 74 1012.9
20260904214600 28 5 0.0 3.2 0.00 0.43 0.43 72 1012.9
20260904214034 28 0 0.0 0.0 0.00 0.43 0.43 73 1012.9
20260904213537 28 0 0.0 1.6 0.00 0.43 0.43 74 1012.7
20260904213110 28 0 0.0 3.2 0.00 0.43 0.43 76 1012.4
20260904212538 28 0 0.0 3.2 0.00 0.43 0.43 75 1012.4
20260904212038 28 258 0.0 4.8 0.00 0.43 0.43 75 1012.0
20260904211609 28 0 0.0 9.7 0.00 0.43 0.43 76 1011.8
20260904211037 28 0 1.6 9.7 0.00 0.43 0.43 77 1012.0
20260904210538 29 352 1.6 4.8 0.00 0.43 0.43 80 1012.0
20260904205538 29 0 0.0 0.0 0.00 0.43 0.43 80 1011.4
20260904205037 29 0 0.0 0.0 0.00 0.43 0.43 80 1011.3
20260904204556 29 0 0.0 0.0 0.00 0.43 0.43 78 1011.3
20260904204037 30 0 0.0 0.0 0.00 0.43 0.43 79 1011.5
20260904203536 30 0 0.0 0.0 0.00 0.43 0.43 80 1011.6
20260904203103 30 0 0.0 0.0 0.00 0.43 0.43 75 1011.6
20260904202537 30 0 0.0 0.0 0.00 0.43 0.43 75 1011.5
20260904202037 30 0 0.0 0.0 0.00 0.43 0.43 75 1011.3
20260904201606 30 0 0.0 0.0 0.00 0.43 0.43 75 1011.5
20260904201038 31 0 0.0 0.0 0.00 0.43 0.43 73 1011.4
20260904200538 31 0 0.0 0.0 0.00 0.43 0.43 72 1011.2
20260904200122 31 0 0.0 0.0 0.00 0.43 0.43 71 1010.6
20260904195538 32 0 0.0 0.0 0.00 0.43 0.43 67 1010.9
20260904195039 32 0 0.0 0.0 0.00 0.43 0.43 68 1011.1
20260904194634 32 0 0.0 0.0 0.00 0.43 0.43 63 1011.4
20260904194038 33 0 0.0 1.6 0.00 0.43 0.43 61 1011.7
20260904193538 33 0 0.0 3.2 0.00 0.43 0.43 60 1011.7
20260904193103 33 0 0.0 4.8 0.00 0.43 0.43 59 1011.8
20260904192537 34 338 0.0 4.8 0.00 0.43 0.43 57 1011.7
20260904192038 35 274 0.0 4.8 0.00 0.43 0.43 57 1011.6
20260904191619 35 0 1.6 4.8 0.00 0.43 0.43 56 1011.8
20260904191040 35 47 1.6 8.0 0.00 0.43 0.43 54 1011.7
20260904190538 35 192 1.6 8.0 0.00 0.43 0.43 55 1011.7
20260904190058 35 212 1.6 8.0 0.00 0.43 0.43 53 1011.7
20260904185538 35 230 0.0 4.8 0.00 0.43 0.43 54 1011.7
20260904185038 35 0 0.0 4.8 0.00 0.43 0.43 55 1011.9
20260904184610 35 0 1.6 4.8 0.00 0.43 0.43 55 1011.9
20260904184038 35 0 1.6 4.8 0.00 0.43 0.43 55 1012.1
20260904183537 34 166 0.0 3.2 0.00 0.43 0.43 55 1012.2
20260904183100 34 179 0.0 1.6 0.00 0.43 0.43 57 1012.3
20260904182537 33 0 0.0 1.6 0.00 0.43 0.43 60 1012.4
20260904182036 33 0 0.0 4.8 0.00 0.43 0.43 60 1012.4
20260904181558 33 0 0.0 4.8 0.00 0.43 0.43 59 1012.5
20260904181037 33 352 1.6 4.8 0.00 0.43 0.43 58 1012.5
20260904180538 34 360 0.0 8.0 0.00 0.43 0.43 59 1012.6
20260904180105 34 304 1.6 8.0 0.00 0.43 0.43 56 1012.7
20260904175540 34 258 1.6 6.4 0.00 0.43 0.43 56 1012.8
20260904175037 34 269 0.0 6.4 0.00 0.43 0.43 58 1012.9
20260904174605 33 240 1.6 4.8 0.00 0.43 0.43 60 1012.9
20260904174037 33 0 0.0 4.8 0.00 0.43 0.43 60 1012.9
20260904173537 33 0 0.0 4.8 0.00 0.43 0.43 61 1013.0
20260904173106 32 170 0.0 3.2 0.00 0.43 0.43 61 1013.0
20260904172537 32 0 0.0 4.8 0.00 0.43 0.43 61 1013.1
20260904172038 32 13 1.6 4.8 0.00 0.43 0.43 59 1013.1
20260904171556 32 348 0.0 4.8 0.00 0.43 0.43 62 1013.1